Tracking 29606 objects as of 18-Sep-2024
HD Live streaming from Space Station
objects crossing your sky now

THOR ABLESTAR DEB

Track THOR ABLESTAR DEB now!
10-day predictions


NORAD ID: 408
Int'l Code: 1961-015EH
Perigee: 932.3 km
Apogee: 1,036.0 km
Inclination: 66.8 °
Period: 104.6 minutes
Semi major axis: 7355 km
RCS: 0.1296 m2 (medium)
Launch date: June 29, 1961
Source: United States (US)
Launch site: AIR FORCE EASTERN TEST RANGE (AFETR)

Note: This is SATELLITE DEBRIS
Your satellite tracking list
Your tracking list is empty




NASA's NSSDC Master Catalog

Two Line Element Set (TLE):
1   408U 61015EH  24262.17028045  .00000881  00000-0  96028-3 0  9993
2   408  66.7860 189.1845 0070497 199.8507 270.1509 13.76295580218505
Source of the keplerian elements: AFSPC